Theta_e
298 298 297 298 298 298 298 298 298 298 299 299 300 302 306 309 310 310 310 310 311 315 318 314 313 315 315 313 311 311 311 311 311 310 310 309 310 310 309 311 312 310 310 312 312 313 313 312 313 314 312 312 311 309 310 311 313 318 316 313 314 320 321 318 319 320 316 313 311 311 311 314 316 314 314 316 314 317 325 326 323 323 319 319 320 319 326
298 297 298 297 298 298 298 298 298 298 299 298 300 303 306 308 310 309 309 311 312 314 315 315 318 319 314 311 311 311 310 310 309 309 309 308 309 311 311 311 311 310 310 311 310 312 314 312 312 314 313 313 312 311 312 313 316 317 315 315 316 316 315 317 320 321 317 314 312 314 316 316 313 312 314 314 313 317 319 318 323 325 319 320 321 320 325
297 297 297 297 298 298 298 298 298 298 299 299 301 304 307 309 310 308 307 308 310 311 311 311 315 317 314 311 311 310 310 310 309 308 308 307 307 310 311 309 309 311 313 314 312 311 313 314 313 314 315 315 312 311 312 313 318 319 313 313 318 317 320 327 327 320 318 317 316 316 316 314 312 313 315 315 316 317 315 315 323 321 313 317 324 323 323
297 297 297 297 298 298 297 298 298 298 298 299 302 306 307 309 310 309 307 307 307 308 308 308 310 312 313 312 310 309 310 310 308 308 308 307 307 307 307 307 311 314 315 316 315 312 313 314 315 314 316 317 312 309 310 310 314 318 312 309 317 322 320 326 330 324 322 322 317 314 314 314 313 312 314 317 317 318 320 320 321 317 313 315 319 319 321
297 297 297 297 297 297 297 297 298 297 299 300 302 305 307 307 307 307 307 307 307 307 307 307 308 309 312 312 309 308 308 308 309 308 308 307 307 308 306 305 310 313 314 316 315 313 313 313 313 311 311 315 314 309 309 308 308 314 310 306 318 327 317 315 321 319 316 315 312 310 312 313 312 311 312 315 317 321 324 319 314 314 315 317 316 317 320
297 297 297 297 297 297 297 297 297 297 299 302 303 304 305 306 305 304 305 307 308 307 307 306 305 306 309 309 307 308 308 307 308 309 308 306 307 310 308 304 305 306 309 314 314 312 314 313 312 311 309 312 316 314 312 309 306 310 311 309 318 327 317 310 314 314 311 311 311 311 313 312 313 315 314 314 317 319 318 314 313 316 318 318 317 316 316
296 296 297 297 297 297 297 297 297 296 298 302 305 305 304 304 304 304 305 306 306 305 305 305 304 305 307 308 306 307 308 308 306 307 311 309 306 309 308 305 304 303 306 312 311 310 313 313 309 309 309 310 313 314 315 312 305 308 314 312 313 319 315 311 316 315 310 310 310 310 314 314 313 314 313 314 316 317 315 313 313 316 317 316 316 317 314
296 296 296 296 296 296 297 297 297 296 298 301 305 304 303 303 304 304 304 303 303 302 303 305 305 304 305 306 305 304 306 308 306 306 309 310 307 308 307 305 304 303 305 308 308 307 310 311 308 307 309 311 312 310 311 310 306 308 313 312 311 314 312 314 323 318 309 311 312 312 316 317 313 312 313 313 313 313 315 314 311 313 314 312 314 317 313
296 296 296 296 296 297 297 297 296 296 297 300 303 303 303 303 303 303 303 302 301 301 302 304 305 304 303 304 304 303 303 305 306 306 306 307 308 309 307 305 305 305 305 307 306 306 308 309 307 306 307 309 309 308 308 308 307 309 311 311 314 318 312 314 323 319 309 310 313 314 319 319 315 314 313 312 312 312 312 311 308 310 311 312 316 317 312
296 296 296 296 296 297 298 297 296 296 297 299 302 303 303 304 303 303 303 303 300 299 301 303 304 304 303 302 303 302 302 303 307 309 306 304 305 306 305 305 306 305 305 305 304 303 304 305 304 304 305 305 305 306 306 306 306 307 309 310 314 318 315 314 319 318 311 310 313 317 321 318 315 314 310 308 310 310 309 308 305 305 308 313 315 312 307
296 296 296 296 295 296 298 298 296 296 297 299 302 303 303 303 303 301 303 304 300 297 300 302 302 303 303 302 302 302 302 303 306 307 305 302 302 303 302 304 308 307 303 303 303 302 302 303 303 303 304 303 304 304 304 305 305 305 308 310 311 315 318 316 317 316 312 311 313 316 317 314 312 310 307 307 308 308 308 307 304 304 306 307 307 306 306
296 296 296 296 295 296 297 298 297 296 297 298 301 303 303 303 302 300 301 304 301 298 300 301 300 301 301 301 302 302 301 302 303 304 304 302 302 302 301 302 306 306 302 301 302 303 303 303 305 306 304 303 304 303 303 306 307 304 305 308 310 314 316 314 316 318 313 310 313 314 312 311 309 305 304 305 305 304 305 304 303 304 305 304 304 305 305
296 296 296 296 295 295 296 298 298 297 297 298 300 302 302 302 302 300 300 302 300 298 300 301 298 299 301 300 301 302 300 301 302 302 303 302 301 302 301 301 302 302 302 302 302 303 305 307 309 308 307 308 309 306 305 307 307 305 304 305 309 315 315 312 312 313 310 310 313 313 309 306 305 305 305 305 305 306 308 306 304 304 304 304 304 303 302
296 296 296 296 295 295 295 296 298 298 298 298 299 301 302 302 302 301 300 302 300 297 298 301 300 300 300 299 300 300 300 301 301 302 302 302 301 301 301 301 301 301 303 302 301 303 308 311 313 312 311 313 313 308 306 306 305 305 305 304 306 311 315 313 310 309 311 312 310 308 306 305 306 307 306 305 305 307 308 307 304 302 302 302 303 303 301
295 295 296 295 295 295 294 294 295 296 297 298 298 300 301 301 300 301 300 301 301 299 298 300 300 299 299 299 299 301 302 302 302 303 302 301 301 301 301 301 301 302 303 302 302 307 310 311 312 312 310 310 309 306 307 306 304 305 304 303 305 308 311 312 309 308 312 313 309 306 307 308 308 308 306 304 303 303 304 307 305 302 301 300 301 303 301
296 295 295 295 295 294 294 294 294 295 296 296 297 299 300 299 299 300 299 300 302 301 298 298 298 299 299 299 299 300 302 303 303 305 305 303 301 301 301 301 301 302 303 301 302 309 312 307 307 308 305 304 305 305 305 306 306 306 304 304 306 308 310 314 313 309 309 312 311 309 308 308 308 307 305 303 302 300 303 309 307 302 300 299 300 301 299
296 295 295 295 295 294 294 294 294 295 295 296 297 298 299 300 299 299 298 298 299 299 298 298 299 299 299 300 300 299 300 300 301 303 304 303 300 300 301 301 301 301 302 303 305 310 310 306 305 306 303 302 303 305 306 307 307 306 305 306 307 309 311 313 313 311 310 310 310 308 307 306 305 305 304 301 301 301 305 311 308 301 299 299 299 299 299
296 296 295 295 295 294 294 294 294 295 296 296 297 297 299 299 299 299 299 298 298 298 297 297 298 298 298 299 299 298 299 299 300 301 303 301 299 300 300 300 301 301 302 306 309 308 306 305 303 303 303 302 302 304 305 305 304 303 304 306 307 308 310 310 309 309 310 310 308 306 305 305 303 303 302 300 300 303 306 308 304 299 298 299 298 298 298
296 296 295 295 295 294 294 294 294 295 296 296 296 297 298 299 299 299 298 298 299 299 297 297 297 297 297 297 297 297 297 298 299 302 304 302 299 299 300 300 300 300 300 305 307 305 304 304 301 301 303 302 301 303 304 302 301 300 302 305 305 305 307 307 306 306 307 307 306 305 305 303 301 300 300 300 303 306 305 303 300 298 298 298 297 298 298
296 296 296 295 295 295 295 294 294 295 296 296 296 296 297 298 299 299 299 299 299 298 298 297 297 297 297 297 297 297 297 298 299 300 301 301 299 301 303 304 302 300 300 303 305 303 303 303 301 301 303 301 300 303 303 302 300 299 300 302 302 302 305 306 303 303 305 306 305 305 304 302 299 300 301 301 303 304 301 299 298 298 298 298 298 298 298
296 296 296 295 295 295 296 295 295 296 296 296 296 296 297 298 299 299 299 299 299 299 299 298 297 297 297 297 297 297 298 299 299 299 299 299 299 301 304 303 300 299 299 301 302 300 300 301 300 300 300 300 301 301 301 303 303 299 299 301 301 301 304 304 302 302 305 305 304 303 302 299 297 299 300 299 299 300 298 298 298 298 298 298 298 298 298
296 296 296 296 295 295 296 296 296 296 296 296 296 296 296 297 298 298 299 299 299 299 299 298 297 296 297 297 297 297 298 298 298 298 298 298 298 300 300 299 299 299 299 299 301 300 299 299 300 300 300 300 301 300 300 302 303 300 299 301 301 300 300 301 301 300 301 302 302 301 299 298 297 298 298 297 297 298 298 298 297 297 298 298 298 298 298
296 296 295 296 295 295 296 297 297 296 296 296 296 296 296 297 297 298 299 299 298 298 299 299 298 297 297 297 297 297 297 298 298 297 297 297 297 298 298 298 299 299 298 299 300 299 299 298 299 300 300 299 299 301 301 301 301 300 299 300 299 298 298 299 300 299 298 299 299 298 297 297 297 297 297 297 298 297 297 297 297 298 298 297 297 298 298
296 296 295 295 295 295 295 296 297 297 297 297 297 296 296 297 298 299 299 299 298 298 298 298 297 297 297 297 297 297 297 297 297 297 297 297 297 298 298 298 299 299 299 299 298 298 298 298 298 300 300 298 300 302 301 299 300 300 300 301 300 298 298 300 300 300 301 300 297 296 297 297 297 298 298 297 298 297 297 297 297 298 298 298 298 298 298
296 296 296 295 296 295 295 295 297 298 298 298 297 296 295 296 298 299 299 299 299 299 299 299 298 297 297 297 297 297 297 297 297 298 298 297 297 298 298 298 298 298 299 298 298 298 299 297 298 301 301 298 299 300 298 299 300 299 300 303 301 298 299 300 300 301 301 300 297 296 297 296 297 298 298 297 298 298 297 298 298 298 298 298 298 298 298
296 296 296 295 296 296 295 294 296 298 299 299 298 295 294 294 296 297 298 299 299 298 299 300 298 297 297 297 297 297 297 297 297 297 298 297 297 297 297 297 298 298 298 298 298 298 298 297 298 301 301 298 298 300 299 298 298 298 299 299 298 298 299 299 298 299 299 298 297 297 297 297 297 297 297 297 298 298 298 298 298 298 298 298 298 298 298
296 296 296 295 296 296 296 295 295 296 298 300 298 295 293 293 294 295 296 298 299 299 300 300 299 298 298 297 297 297 297 297 297 297 297 297 297 297 297 298 298 297 298 298 298 298 298 297 298 299 299 297 297 298 297 296 297 298 299 297 297 299 299 298 298 300 299 298 298 297 297 298 298 297 297 298 298 298 298 298 298 298 297 297 297 298 298
295 295 295 296 296 296 296 295 295 295 297 299 298 295 293 293 294 294 295 297 298 298 299 299 298 298 298 297 297 297 297 297 297 297 297 297 297 297 297 297 297 297 298 298 298 297 297 297 298 298 297 297 298 297 296 297 298 299 299 298 298 298 298 299 301 302 300 299 297 296 297 298 297 297 298 297 297 297 297 297 297 297 297 297 297 297 297
295 295 295 296 297 296 296 295 295 295 296 298 298 296 295 294 294 293 295 296 297 297 297 298 298 298 298 297 297 296 296 297 297 297 297 297 297 297 297 297 297 297 297 297 297 297 297 297 297 296 297 298 299 299 298 299 299 299 298 297 297 297 297 298 299 298 297 297 297 297 297 297 297 297 297 297 297 297 297 297 297 297 297 297 297 297 297
295 295 295 296 296 297 296 296 295 295 296 296 296 296 296 296 294 293 294 295 295 296 297 298 299 298 297 297 297 297 296 297 297 297 297 297 297 297 297 297 297 297 297 297 297 296 297 297 296 297 298 297 297 298 299 298 299 300 298 296 296 297 297 297 297 297 297 297 297 297 297 297 297 297 297 297 297 297 297 297 297 297 297 297 297 297 297
295 295 295 296 296 297 297 296 296 296 297 297 296 296 296 296 296 295 293 293 295 295 296 297 299 298 297 297 298 297 297 297 297 297 298 297 298 298 297 297 297 297 297 297 296 296 297 296 295 297 298 297 297 300 300 298 298 299 297 296 296 296 296 296 296 296 297 297 297 297 297 297 296 296 295 296 297 297 297 297 297 297 297 297 297 297 297
295 295 295 295 296 297 297 297 297 297 298 298 298 298 298 298 297 296 294 293 294 296 296 298 299 298 297 297 297 297 297 297 297 298 298 298 298 298 298 297 297 297 296 296 296 296 296 296 295 296 297 297 299 300 300 299 300 299 296 295 296 296 296 297 297 296 297 297 297 297 296 296 296 296 296 296 297 297 297 297 297 297 297 297 297 297 296
295 295 295 295 296 297 298 298 297 298 298 298 299 299 299 298 298 297 295 293 293 294 296 298 299 298 297 297 297 297 297 298 298 297 298 298 298 297 297 297 296 296 296 296 296 296 296 296 295 296 297 297 299 299 299 299 300 298 296 296 296 296 296 297 296 296 296 296 296 296 296 296 296 296 296 296 296 296 296 296 296 297 296 296 296 296 295
295 295 295 295 295 297 298 298 298 298 298 298 299 299 299 297 297 296 295 294 293 295 297 298 298 298 298 298 298 298 297 298 298 297 297 297 297 297 297 297 296 296 296 297 296 296 296 296 296 296 297 297 296 297 298 299 298 296 296 296 296 296 297 296 296 296 296 296 296 296 296 296 296 296 296 296 295 295 295 295 296 295 295 295 295 294 294
295 295 295 295 295 296 297 298 299 299 299 299 299 298 297 297 296 295 295 294 294 297 299 298 298 298 299 300 300 300 298 297 297 297 297 297 297 297 296 296 296 296 296 296 296 295 295 295 296 297 296 295 296 298 299 298 296 295 296 296 296 296 296 296 296 296 296 296 296 296 296 296 296 296 295 295 294 294 295 294 294 294 293 293 293 292 292
295 295 295 295 296 297 298 299 300 300 299 299 299 298 297 297 296 295 295 294 294 296 298 298 298 298 298 300 300 298 297 298 298 297 297 297 297 297 296 296 296 296 296 295 295 295 295 296 297 296 295 295 297 299 298 297 296 295 295 296 296 296 296 296 295 295 296 296 296 296 296 295 295 295 294 293 294 295 294 294 293 293 293 292 292 291 291
295 295 295 295 296 298 299 300 300 300 299 299 298 297 297 297 297 297 296 296 296 296 296 297 297 296 296 298 299 297 298 299 298 297 297 297 296 296 296 296 296 295 295 296 296 296 296 296 295 296 296 297 297 297 296 296 296 296 295 296 296 295 295 294 294 294 296 296 296 296 295 295 294 294 294 293 294 294 294 293 293 293 293 292 292 291 290
295 295 295 295 296 298 299 299 299 299 299 298 298 297 297 298 298 298 298 298 299 298 296 296 297 296 296 297 298 298 298 298 297 297 298 297 296 296 296 296 296 294 295 297 297 295 296 297 297 296 297 296 295 295 296 296 296 296 295 296 295 294 293 292 293 294 295 296 296 295 295 294 294 294 294 293 294 293 293 293 293 293 292 291 291 290 289
295 295 295 296 296 297 298 298 298 297 297 297 297 298 298 298 298 299 299 299 299 299 298 298 298 297 297 297 298 298 298 297 297 298 298 297 297 297 296 296 296 294 295 297 296 293 295 298 297 296 297 295 293 295 296 296 295 296 296 295 294 293 292 292 293 295 296 296 296 295 295 294 294 293 293 293 294 293 293 293 293 292 290 290 290 290 290
296 295 296 296 296 297 297 296 296 296 297 297 298 298 298 298 298 298 298 299 299 299 299 299 299 298 298 298 298 298 297 297 298 299 298 297 297 296 295 295 295 294 295 296 295 293 295 296 295 296 298 297 295 294 295 295 295 295 295 294 293 292 292 293 295 296 296 296 296 295 294 294 293 292 293 293 293 294 294 293 292 290 289 290 290 290 290
296 296 296 297 297 297 296 296 297 297 297 297 297 297 297 297 297 297 297 298 300 299 298 298 298 298 297 297 298 297 297 298 297 297 297 297 296 295 295 296 294 293 295 296 295 295 296 296 295 296 298 297 296 295 295 295 295 295 295 294 292 292 293 294 295 296 295 295 295 295 294 293 292 292 292 292 293 293 293 291 289 289 289 290 291 291 291
296 296 297 297 297 297 297 297 297 298 298 297 297 297 297 296 297 297 297 297 299 298 297 297 297 297 297 297 297 297 298 298 297 296 297 297 296 295 296 296 294 294 296 297 296 295 295 295 296 298 298 295 294 295 295 295 295 295 294 293 292 293 294 295 295 295 295 295 294 293 293 292 292 292 292 292 293 293 291 289 288 289 290 291 291 291 291
297 297 297 297 297 296 297 297 297 297 298 298 298 297 297 297 297 297 297 297 297 297 297 297 297 297 297 298 297 297 297 297 296 296 296 297 296 296 296 296 295 295 296 296 295 296 296 296 299 301 298 295 294 295 295 295 295 295 294 293 293 293 295 295 295 295 295 294 293 292 292 292 292 292 292 292 292 291 289 288 288 289 290 290 291 291 291
297 297 297 297 296 296 297 297 297 296 297 298 297 297 298 298 298 298 298 298 298 298 298 298 297 297 298 298 297 297 297 296 296 296 296 296 296 296 296 297 296 295 294 296 297 296 295 297 299 298 296 295 295 295 295 295 295 294 293 293 293 294 295 296 296 295 294 293 293 292 292 292 292 292 292 291 290 289 288 289 290 290 290 291 290 290 291
297 297 296 297 297 296 296 296 297 297 297 298 299 299 298 297 297 298 298 298 297 297 298 298 297 297 298 297 297 297 297 296 296 296 295 294 295 296 296 298 298 295 294 296 297 295 295 298 298 295 294 295 296 294 294 295 294 293 293 293 293 294 295 296 296 295 293 293 293 293 292 292 292 292 292 291 290 289 290 291 291 291 291 291 291 290 290
297 296 295 297 298 297 295 296 298 298 297 297 298 299 298 296 296 297 297 297 297 297 297 297 297 297 297 297 297 297 296 295 296 296 295 294 296 297 296 295 296 296 295 296 296 297 298 298 296 294 294 295 295 294 294 294 293 293 293 293 293 295 295 296 296 295 294 293 293 293 293 293 293 293 292 291 290 291 291 292 292 291 291 291 291 290 289
297 296 295 297 299 297 296 297 298 297 296 296 296 297 296 296 296 297 297 297 298 297 297 297 297 297 297 297 297 297 296 296 296 297 296 295 296 297 297 295 295 296 296 296 297 300 301 298 294 294 295 295 294 294 294 294 293 293 293 293 294 295 295 296 296 295 294 294 294 294 294 293 292 292 291 291 291 292 292 292 291 291 291 291 290 289 288
296 296 296 298 299 297 297 297 297 296 296 297 297 297 297 297 297 297 297 297 298 298 297 297 297 297 297 297 296 296 296 295 296 297 297 296 296 296 297 297 296 296 296 297 299 302 301 297 294 295 296 295 294 295 294 294 294 294 293 293 294 295 295 296 296 295 294 294 294 294 293 293 292 292 292 292 292 292 291 291 291 291 290 290 289 288 287
296 296 296 296 296 296 295 296 296 296 297 297 297 297 297 297 297 297 297 297 297 297 297 296 296 297 297 297 296 296 296 296 297 296 296 296 296 296 297 297 296 296 297 298 298 298 297 295 295 295 295 295 295 295 294 294 294 293 293 293 294 294 295 296 296 295 294 294 294 294 293 293 293 293 293 292 292 291 291 291 291 291 290 290 289 288 288
296 296 296 296 296 296 296 296 297 296 297 297 297 297 297 297 296 297 297 297 297 297 297 296 296 297 296 296 296 296 296 296 296 296 296 297 297 296 295 296 297 299 299 298 295 294 295 296 295 295 295 296 295 295 294 294 294 293 293 294 294 294 295 295 295 295 294 294 294 294 294 294 294 294 294 293 293 292 291 291 291 291 290 290 289 289 289
295 295 295 295 296 296 296 297 298 297 296 296 296 296 296 296 296 297 297 297 297 297 297 297 296 296 296 296 296 296 296 295 295 296 297 298 297 296 297 297 298 298 298 296 295 295 296 296 296 296 296 296 295 295 295 294 293 293 293 293 294 294 295 295 296 295 295 294 294 294 294 294 294 294 294 294 293 292 291 292 292 291 290 290 291 291 290
295 295 295 295 295 296 296 296 296 296 296 296 296 296 296 296 296 296 296 296 296 296 296 296 296 297 297 297 296 296 296 296 295 296 296 296 296 296 298 299 297 296 295 296 295 296 296 296 296 296 296 296 296 295 295 294 293 293 293 293 294 294 295 295 295 295 295 295 295 294 294 294 294 294 294 294 293 292 292 292 292 291 291 291 291 291 291
Wind_Speed
25 26 27 28 29 29 30 31 31 32 31 28 23 19 15 10 4 11 16 6 18 10 2 2 1 1 1 2 3 2 2 3 4 5 4 3 5 4 3 3 2 2 2 1 2 3 2 2 2 3 2 2 6 10 7 1 5 5 2 1 0 2 4 3 1 3 3 4 5 5 4 6 6 3 1 3 2 2 5 5 3 3 3 2 4 1 5
25 26 27 28 29 29 30 31 30 30 31 28 23 17 14 10 6 12 17 7 16 7 2 0 1 3 3 2 2 3 4 4 5 3 2 4 3 1 1 2 2 1 1 4 3 1 2 2 3 3 2 3 10 16 14 6 2 2 2 4 2 1 1 3 3 3 4 4 4 4 5 4 3 2 4 3 3 3 2 2 3 3 4 5 5 2 6
25 26 28 28 29 30 30 30 29 29 29 25 20 15 12 8 5 10 18 16 13 7 5 1 2 3 2 2 4 4 3 3 6 3 3 6 4 2 2 4 4 4 3 5 4 5 4 2 3 4 3 3 7 15 18 11 5 4 4 4 4 3 2 3 5 4 2 2 2 3 1 2 1 2 5 4 5 4 2 2 3 1 3 4 5 5 5
25 26 28 28 29 30 30 30 29 28 28 24 16 12 9 6 4 6 12 19 22 17 13 8 3 2 1 2 4 5 3 5 12 10 6 8 8 7 5 6 4 5 5 5 5 8 6 3 3 4 4 3 3 10 18 19 14 9 10 10 5 4 3 2 5 6 6 5 4 4 3 3 1 1 4 5 3 4 4 4 2 2 3 1 3 5 3
25 26 27 28 29 30 30 30 29 28 28 22 12 10 10 5 3 4 4 10 15 16 17 15 6 2 4 2 2 6 3 3 9 10 7 9 9 7 8 9 6 4 4 4 4 6 6 6 5 3 4 3 3 8 14 19 21 13 8 9 5 5 3 1 5 4 1 3 2 1 2 5 4 3 2 4 3 5 6 3 2 3 5 1 6 2 5
25 25 26 27 28 29 30 29 28 27 27 18 10 13 13 6 3 5 5 3 4 6 11 14 9 10 9 3 2 6 7 6 6 5 5 10 10 6 6 10 9 5 3 4 3 4 4 5 5 3 5 4 4 8 7 12 19 14 6 7 5 6 2 1 4 5 4 4 3 1 4 4 3 4 4 1 3 5 5 3 3 6 5 5 4 4 4
24 24 25 26 28 29 29 29 28 27 23 16 15 18 13 7 5 7 8 5 3 4 6 10 11 13 10 5 5 7 8 7 5 4 3 6 10 6 4 6 9 9 7 4 3 3 2 2 3 3 4 4 3 5 4 7 15 13 5 4 4 4 2 1 4 5 5 5 4 4 6 5 3 3 2 1 2 3 4 2 1 5 5 4 6 7 2
24 24 24 25 27 28 29 28 28 27 21 16 20 22 14 9 6 6 7 8 10 11 10 8 9 10 10 7 6 7 7 6 5 6 5 2 4 6 5 3 5 7 8 7 5 1 3 4 0 1 2 3 2 3 2 3 9 9 4 3 4 4 2 0 3 5 3 5 5 5 6 5 4 5 5 3 2 3 4 4 3 3 3 3 6 8 3
23 23 23 24 26 26 28 27 28 28 23 19 22 21 14 10 9 6 4 5 10 11 9 7 5 5 8 6 6 7 8 7 4 5 9 7 3 2 3 3 4 6 8 8 3 3 5 6 4 4 3 2 2 1 1 1 5 7 4 3 4 4 2 1 5 4 2 2 3 3 5 7 6 5 6 4 4 3 3 3 3 1 2 4 5 6 0
22 23 22 23 24 25 26 26 27 27 25 22 22 19 13 10 9 7 4 4 9 8 5 6 5 3 3 5 7 8 9 11 7 4 10 15 12 5 3 3 3 5 7 7 5 6 5 6 7 7 7 8 8 8 7 4 1 2 2 2 2 2 4 2 3 3 3 3 1 2 4 6 3 3 2 1 4 6 5 5 5 4 2 4 3 2 2
22 22 22 22 23 23 23 24 25 26 26 25 23 19 15 11 10 8 5 4 8 9 4 5 5 2 3 5 6 7 9 12 10 5 5 10 14 14 9 5 4 4 4 7 10 10 11 11 10 8 8 10 11 10 8 6 5 4 1 1 2 2 4 3 2 3 3 5 3 4 4 1 4 5 3 3 5 9 9 5 4 6 4 2 2 1 3
21 21 21 21 21 21 21 22 22 24 24 22 19 17 14 12 11 11 7 5 5 8 5 5 4 2 5 7 5 5 6 7 9 9 6 5 13 19 17 10 4 2 7 11 12 10 8 8 6 5 5 5 7 6 3 4 5 5 6 3 1 2 3 2 2 3 2 2 5 3 2 4 2 2 3 5 6 11 14 8 5 6 6 5 5 5 5
20 19 19 20 20 19 19 19 20 21 21 20 18 16 13 11 10 10 9 6 3 5 2 3 7 8 10 11 7 4 7 8 10 13 12 8 12 16 16 11 5 7 9 9 9 6 2 2 3 2 4 5 4 3 2 2 2 2 1 3 4 4 3 2 2 3 2 1 3 2 5 3 0 4 3 4 2 5 10 8 7 7 5 4 5 5 5
20 19 18 19 19 19 18 17 18 18 19 19 18 15 12 11 11 10 9 6 3 5 4 1 6 10 9 10 8 5 8 12 11 10 11 9 9 12 16 16 13 11 10 6 5 5 3 1 3 3 3 4 4 3 2 1 5 7 6 4 4 6 4 2 2 2 3 3 2 1 1 1 2 3 2 1 2 3 4 5 3 4 5 4 3 4 6
19 18 18 18 18 18 17 17 17 17 17 17 16 14 12 11 11 10 8 5 4 7 11 5 5 7 6 8 10 6 5 8 7 5 7 9 10 11 14 18 16 13 11 8 5 3 2 2 3 2 3 3 1 2 2 2 3 5 7 5 1 4 3 4 4 2 3 5 3 1 2 3 5 4 4 3 5 6 3 5 1 3 6 5 3 4 6
18 17 17 17 17 17 16 16 16 17 17 15 14 12 11 11 12 11 11 9 5 3 9 8 6 5 4 6 9 7 3 4 4 4 5 7 11 13 13 15 16 14 12 9 5 3 3 2 2 2 1 1 1 1 2 2 3 5 6 7 7 6 2 3 4 2 2 5 4 3 3 4 5 6 6 9 9 5 2 5 1 2 5 5 7 7 7
18 17 17 17 17 17 16 16 16 16 17 16 13 11 10 10 11 12 15 17 12 6 8 10 11 10 7 5 7 6 4 4 3 2 2 4 8 13 15 15 15 16 13 7 3 4 5 3 2 3 1 2 1 1 2 2 3 6 7 7 8 7 4 4 4 2 2 3 3 2 2 2 3 4 7 14 11 1 5 2 3 1 3 6 10 11 10
18 17 16 16 16 16 16 16 16 16 16 16 13 10 8 9 9 8 11 14 12 7 10 14 14 12 8 5 5 5 4 4 2 1 2 2 4 10 13 12 13 14 12 6 2 3 4 2 2 2 1 3 1 1 2 2 2 4 5 3 4 4 3 3 3 3 2 3 3 1 1 1 4 7 11 14 8 2 4 4 5 5 7 8 11 12 11
17 17 16 16 16 16 16 15 15 16 16 15 12 9 7 9 9 9 12 14 11 8 10 13 15 14 12 11 10 8 6 6 5 3 1 3 6 8 6 6 9 10 8 5 3 2 3 2 2 1 1 3 2 1 1 2 2 3 3 3 3 3 3 3 2 2 3 3 3 1 1 2 8 12 11 8 2 2 2 4 8 10 10 9 10 10 9
17 17 16 16 16 16 16 14 14 15 16 15 13 9 7 7 9 10 12 14 14 12 11 12 13 15 15 16 16 13 10 9 8 5 3 2 9 8 2 3 8 9 6 5 3 1 2 1 2 1 1 2 2 2 2 2 2 3 2 2 2 1 1 2 2 1 2 2 3 3 1 5 11 10 6 6 3 4 6 8 9 9 10 9 8 8 7
16 16 16 16 16 16 16 14 13 14 15 16 14 9 5 5 7 9 9 10 10 9 8 8 9 12 13 14 16 15 14 12 10 7 5 5 9 7 3 2 4 5 2 2 2 1 1 0 1 1 1 2 2 2 2 2 3 4 2 1 2 2 1 1 1 1 2 1 1 2 1 5 9 7 3 4 6 7 10 11 8 7 7 6 5 4 4
16 16 16 16 15 15 15 14 12 13 15 16 15 12 8 5 5 7 8 8 8 7 5 4 5 8 9 10 12 13 13 13 13 11 10 10 11 10 6 3 5 4 3 3 2 1 1 1 1 1 1 1 2 2 2 3 1 4 3 2 2 2 2 4 2 1 3 2 2 4 3 3 11 14 10 9 11 11 9 9 7 5 4 3 3 3 4
15 15 15 15 14 14 14 13 12 13 14 16 16 16 14 8 5 5 6 7 9 9 6 4 3 3 5 7 8 10 10 11 12 12 11 9 9 9 7 7 6 4 4 5 3 1 1 1 1 1 1 1 2 2 3 2 1 2 2 1 1 1 3 5 4 2 4 6 6 7 7 7 11 13 12 11 10 9 8 7 5 4 3 3 4 4 5
14 15 14 14 13 12 12 11 11 11 12 14 15 16 14 10 7 5 5 5 7 7 6 5 4 3 3 4 5 6 8 9 8 9 12 10 7 5 5 6 5 4 6 7 4 2 2 1 0 2 1 0 1 3 2 2 0 0 1 1 3 3 3 3 3 3 3 3 3 4 6 7 9 10 10 9 8 7 7 5 4 3 2 3 5 5 6
12 14 14 14 13 11 10 9 9 9 10 12 14 14 12 10 8 6 4 4 4 4 2 3 4 3 1 1 3 3 5 7 6 6 8 11 10 8 7 7 6 6 6 6 5 4 4 2 2 2 2 0 1 1 1 1 0 1 2 0 2 3 4 3 3 3 2 2 2 2 4 6 7 8 7 6 6 5 4 4 3 3 4 6 7 8 9
10 12 14 13 13 12 9 7 7 7 8 10 12 14 14 13 10 7 5 5 5 4 2 1 1 2 1 2 4 4 1 3 6 5 6 8 9 8 7 7 7 6 6 5 6 6 5 3 2 2 1 1 1 1 2 1 1 1 1 1 2 1 2 1 3 3 3 1 1 1 1 1 4 6 5 4 4 4 4 3 4 6 7 8 9 10 11
9 11 12 13 13 11 8 7 6 5 5 7 10 12 14 14 12 10 8 6 3 2 1 1 1 2 2 3 5 4 0 1 3 5 4 5 6 6 5 4 4 5 5 6 5 4 4 3 2 1 1 0 1 1 1 1 1 2 1 2 2 2 0 1 4 4 0 3 3 1 2 2 2 3 4 3 3 4 5 6 7 8 8 9 11 12 12
9 10 11 12 12 10 8 7 6 4 3 5 7 10 13 14 14 12 10 8 5 3 2 4 4 3 1 2 3 4 1 2 1 4 3 2 4 5 5 5 4 4 3 4 3 2 2 2 1 1 1 1 1 1 2 2 3 2 1 3 2 3 3 3 4 4 4 6 5 4 3 4 4 3 4 4 5 7 9 10 10 10 10 10 12 13 13
8 9 9 10 10 9 7 6 5 4 3 3 4 6 9 12 13 12 9 8 8 6 5 5 3 2 2 2 2 3 2 1 1 3 4 3 2 4 5 5 5 4 3 3 2 1 1 2 2 2 1 1 1 1 1 2 2 1 3 1 4 6 5 6 7 5 4 4 5 5 4 4 4 4 4 5 6 9 11 12 12 13 14 13 13 14 14
8 8 8 8 8 7 5 5 5 5 5 4 3 3 4 8 11 11 9 8 8 7 6 4 2 2 4 3 2 3 2 1 1 3 5 4 3 4 5 5 5 4 3 3 2 1 2 2 2 2 2 2 2 1 1 2 1 3 3 3 7 8 7 6 6 4 3 5 5 4 4 5 6 7 8 7 8 10 12 13 14 15 15 14 12 12 13
8 8 7 6 6 5 4 3 3 4 5 6 5 4 3 4 8 11 10 8 6 7 6 4 3 4 4 3 4 5 5 3 5 7 7 6 5 5 5 5 6 5 4 4 3 2 2 2 1 1 2 3 3 2 3 3 1 2 4 8 10 9 7 7 6 4 5 5 5 6 8 8 9 10 10 9 10 12 14 14 15 15 14 13 12 12 13
9 9 8 7 5 4 2 2 1 2 3 5 6 5 4 6 10 12 10 7 5 6 5 3 3 2 3 3 5 6 6 5 7 8 8 5 4 4 4 4 5 5 5 4 2 2 2 2 2 2 3 4 2 2 3 4 2 5 11 13 11 9 7 7 7 6 6 6 7 8 10 10 11 11 11 11 12 13 13 12 12 12 11 11 11 12 13
11 10 9 8 7 5 4 3 2 2 2 3 4 3 6 9 12 12 9 6 4 4 4 2 1 1 2 4 4 4 5 5 5 6 7 5 3 4 4 3 4 5 5 4 3 2 2 2 2 2 3 4 2 2 2 2 5 11 16 15 11 9 8 7 5 6 7 8 9 9 10 11 10 9 9 10 11 11 10 10 10 10 10 11 12 13 14
12 11 10 9 7 6 6 5 5 5 4 3 2 4 8 10 11 10 8 5 4 3 2 1 0 1 3 4 2 2 4 6 5 5 6 5 4 6 4 3 3 3 3 4 3 2 2 3 3 2 2 3 2 2 1 4 7 13 17 14 10 9 7 6 7 9 9 10 10 10 10 11 10 9 9 10 11 10 9 8 9 10 11 13 14 14 15
12 11 10 8 7 7 7 7 7 6 6 4 5 7 9 10 10 8 5 3 2 1 0 0 0 0 2 3 2 2 4 5 4 5 5 5 6 6 4 2 2 2 3 4 3 2 1 2 3 2 1 1 2 1 4 6 9 14 16 13 11 9 7 7 9 10 10 9 9 9 10 9 9 9 10 10 9 8 7 7 9 11 12 12 13 13 13
11 11 10 8 7 7 7 7 7 6 5 4 6 9 10 9 7 5 3 2 2 1 1 0 0 2 2 0 2 3 3 3 4 5 5 5 5 5 3 1 1 2 2 2 1 1 2 3 4 1 1 1 3 5 7 10 15 18 16 12 10 9 7 8 8 8 9 9 9 10 9 9 9 8 8 9 8 5 4 7 10 10 10 10 10 9 9
10 10 9 7 6 6 6 6 6 5 3 4 9 11 10 7 5 4 3 2 2 3 2 1 1 3 3 2 2 2 2 2 4 4 4 4 5 5 2 1 1 1 1 1 1 1 3 5 3 1 1 3 4 7 9 12 17 18 15 11 9 6 6 9 10 9 9 10 11 11 9 8 8 6 6 7 7 4 4 7 9 7 7 7 7 6 7
9 9 8 6 4 4 4 4 5 6 6 8 9 9 6 3 2 2 2 1 2 3 4 3 3 4 4 3 2 2 2 2 3 2 1 2 3 3 2 1 1 1 1 2 3 1 1 1 1 1 3 4 5 7 9 12 14 13 10 7 5 5 8 10 11 10 10 12 12 10 8 7 7 7 7 8 6 3 4 7 7 4 4 4 5 6 9
9 8 7 5 4 2 3 6 9 10 9 7 5 3 2 1 1 1 1 1 1 2 3 4 5 5 6 4 4 5 5 2 3 1 1 1 1 1 2 2 1 1 1 2 2 1 0 2 2 1 2 5 4 7 11 12 12 10 7 5 4 7 10 10 10 10 11 12 11 10 9 9 9 9 8 7 4 4 5 6 3 1 2 3 5 7 10
8 6 5 6 6 5 5 8 9 7 4 1 0 0 1 1 0 1 1 0 1 2 4 4 5 5 6 6 5 5 5 4 2 1 1 1 1 0 1 1 0 1 1 2 2 1 1 1 2 1 2 5 7 12 13 12 11 9 7 4 6 9 10 9 10 11 11 11 10 10 11 11 9 7 5 5 5 5 6 3 1 1 1 3 5 7 9
12 10 9 9 8 7 5 4 3 2 2 2 1 1 1 0 2 1 0 1 1 2 4 4 3 3 6 8 6 4 4 5 5 3 2 2 2 1 0 1 1 1 0 3 3 1 3 1 2 1 4 7 10 15 16 14 11 9 6 5 8 10 9 8 9 10 10 10 10 11 10 7 4 4 6 7 5 5 4 3 2 2 2 3 6 8 11
14 12 11 10 8 7 5 3 3 3 2 2 2 1 1 1 2 2 0 1 2 3 2 3 3 3 3 5 5 4 3 4 4 2 1 1 2 2 1 1 1 1 2 4 1 3 2 1 1 4 6 7 9 16 18 15 12 9 6 7 9 8 7 7 8 8 9 10 9 7 3 3 5 6 7 7 5 4 4 3 2 1 1 4 6 9 11
12 11 10 9 7 6 5 3 3 2 1 2 2 2 2 2 2 1 1 3 4 3 2 3 3 2 2 3 3 3 2 3 4 3 1 2 2 1 1 2 1 1 3 1 2 3 0 2 3 5 6 6 8 16 19 15 11 8 7 8 9 7 7 6 7 8 9 8 3 4 6 6 6 6 6 6 5 4 4 3 2 1 2 5 7 9 11
10 9 8 6 4 4 3 2 2 2 1 1 1 1 1 3 3 1 2 5 5 5 6 6 5 4 3 3 3 2 2 3 3 3 2 2 1 1 1 1 2 2 1 2 2 0 2 3 4 6 6 5 10 16 17 14 11 9 8 8 8 7 7 7 6 7 8 4 5 8 7 5 6 6 6 5 5 4 3 3 1 1 4 6 8 10 12
10 9 7 4 3 3 2 1 1 1 1 1 1 3 3 1 2 3 4 7 9 11 12 10 7 5 4 3 3 2 3 3 2 2 2 0 1 0 1 2 1 0 1 1 1 1 2 3 5 7 7 7 11 16 17 14 11 9 8 9 9 8 8 7 6 5 4 2 6 7 6 5 5 4 4 5 5 4 3 2 1 3 5 7 9 11 12
9 8 6 3 2 2 1 1 1 0 1 2 2 3 2 2 4 4 8 12 14 14 13 8 6 4 4 4 3 3 4 4 2 2 1 2 1 2 3 1 1 2 2 1 1 2 3 5 7 8 9 10 11 16 17 13 10 9 9 9 9 8 7 7 7 6 3 2 4 6 6 5 4 3 4 5 5 3 2 2 2 4 6 7 10 12 11
6 5 4 1 1 2 1 1 2 2 2 1 2 3 5 6 6 8 11 13 12 13 11 7 5 5 5 4 3 4 4 3 1 1 1 2 0 2 0 1 0 1 1 1 3 4 4 6 9 10 10 10 9 15 17 14 11 11 10 9 8 8 9 9 9 8 7 5 4 5 6 5 5 4 4 4 3 3 2 3 4 5 5 7 10 11 9
4 3 2 0 1 1 1 1 2 3 5 6 7 9 11 9 9 11 13 11 9 10 11 9 6 4 4 3 2 2 2 1 1 2 2 1 0 1 1 1 2 2 2 3 4 5 5 8 12 11 9 7 7 14 18 16 13 11 10 8 8 9 10 10 9 9 8 7 5 5 7 7 6 5 4 3 2 2 2 3 3 4 6 8 9 8 7
4 2 2 2 2 4 6 5 5 7 11 12 11 10 9 10 11 13 13 10 9 9 9 6 3 2 2 2 0 1 1 1 1 1 1 1 1 1 1 1 2 3 2 3 5 5 7 12 14 12 9 7 7 13 17 17 14 11 9 7 7 8 9 9 8 8 8 8 7 6 7 7 6 5 5 4 3 2 1 2 3 4 5 5 4 5 7
4 4 5 5 4 5 6 6 4 6 9 11 10 9 9 12 15 15 11 10 12 13 9 5 4 2 2 1 1 1 2 2 2 1 1 2 2 2 1 2 3 3 3 3 3 5 10 13 13 10 9 9 9 13 17 17 14 11 10 9 9 9 9 9 8 8 9 9 8 7 7 8 8 7 6 6 5 3 2 2 3 3 3 2 2 5 8
4 5 8 10 10 8 6 5 4 5 8 12 15 16 15 16 18 16 13 13 13 12 7 4 3 1 0 1 1 1 1 1 1 1 1 2 3 3 2 3 5 5 4 3 5 9 11 12 11 10 11 11 11 12 16 17 15 12 11 12 12 11 11 10 10 10 9 10 10 9 9 9 9 8 7 7 7 6 5 3 2 2 1 1 1 4 7
6 6 8 11 14 16 15 14 13 14 17 20 22 21 18 18 18 17 16 15 13 9 7 6 4 1 1 2 2 1 1 1 1 1 2 3 2 3 4 6 7 7 6 5 8 10 11 12 13 14 15 14 13 11 13 17 18 15 13 14 15 14 13 12 11 10 10 10 10 11 10 9 9 9 9 9 9 8 7 5 4 3 3 2 2 3 5
Wind_Direction
2 2 2 1 2 1 359 358 357 355 355 358 1 356 353 352 350 21 27 137 171 152 69 346 23 169 228 229 213 223 231 237 258 269 285 256 227 230 236 215 183 186 217 192 72 74 48 15 43 61 34 6 354 342 332 61 90 91 128 213 202 94 88 86 289 306 336 323 330 2 41 67 64 30 30 78 68 115 147 178 180 137 150 137 94 129 257
3 3 2 2 3 3 1 360 359 359 360 0 358 352 348 347 355 29 37 113 175 169 28 345 302 303 309 354 320 275 243 253 264 254 351 336 276 246 331 346 26 6 123 78 48 36 65 32 18 52 59 349 356 0 358 358 59 77 175 188 160 117 116 103 85 10 6 1 342 349 4 30 63 341 334 22 63 78 114 135 82 107 186 159 125 200 250
4 3 3 3 4 5 4 2 0 2 4 2 357 352 351 355 18 26 33 62 100 82 30 334 262 294 328 18 359 325 283 354 23 63 62 14 19 65 354 346 7 2 45 71 28 17 61 72 17 32 23 330 353 10 19 28 43 53 67 97 124 132 126 116 120 135 152 165 221 234 283 0 24 344 344 12 49 51 62 101 76 101 197 141 137 197 245
5 4 4 4 5 7 6 5 3 4 8 5 0 8 12 18 30 0 12 38 48 39 20 1 296 256 60 66 20 357 313 10 29 45 50 19 34 59 17 354 17 14 27 68 36 10 19 42 53 32 356 319 335 11 29 35 26 30 49 45 62 110 73 91 129 145 177 179 196 211 158 99 98 1 0 0 17 58 84 91 84 172 156 132 224 201 178
6 5 5 5 6 8 9 9 8 8 11 8 8 36 47 52 26 352 355 18 21 19 10 360 345 6 45 82 17 2 359 8 19 34 37 15 25 53 30 19 35 13 15 81 56 355 359 22 37 15 338 298 306 9 38 36 17 12 33 27 48 102 48 46 107 85 150 154 139 269 112 109 140 139 53 358 5 63 84 107 172 138 118 230 267 208 142
7 7 7 8 8 9 11 15 14 15 17 18 40 57 51 56 32 20 52 43 358 14 359 346 3 29 29 57 48 14 30 39 18 9 24 22 23 40 32 21 26 17 19 101 74 2 15 19 2 349 351 331 328 359 29 29 15 15 24 22 65 116 78 107 102 57 39 65 63 99 99 88 106 124 119 73 49 85 114 165 175 134 138 209 218 123 134
10 10 10 10 11 11 13 17 20 22 23 30 62 65 48 50 50 27 54 70 25 38 12 352 19 30 19 26 34 18 28 39 19 345 12 27 18 36 69 20 17 27 35 81 88 21 58 49 344 333 354 345 350 5 356 356 8 15 23 16 58 108 60 52 103 78 45 26 29 92 100 89 70 70 77 57 64 105 119 121 126 116 131 178 140 104 76
11 13 13 13 14 14 15 18 22 26 28 39 61 62 48 47 42 10 39 51 24 25 29 21 33 26 12 18 18 11 19 22 12 19 45 59 359 31 84 61 31 42 43 67 96 109 137 130 320 304 14 356 2 28 358 318 350 4 13 358 21 82 113 291 84 82 25 358 22 64 89 109 98 44 10 18 67 56 50 41 21 60 94 147 117 95 41
13 15 16 16 16 18 18 20 23 26 30 43 56 57 50 51 46 22 37 38 9 10 22 36 57 29 8 5 357 3 6 357 358 37 43 55 59 60 116 99 49 42 43 56 87 202 171 168 226 225 196 263 277 291 317 335 354 356 358 345 2 64 116 38 65 90 253 325 50 68 74 80 72 29 2 16 81 84 49 45 18 8 161 151 109 106 136
13 16 19 18 19 22 22 22 25 26 31 42 49 49 47 52 51 45 77 57 10 5 17 37 58 54 350 337 345 359 0 359 14 64 38 35 41 53 137 131 62 42 35 23 338 288 255 252 275 267 246 254 259 258 262 256 237 340 354 0 357 75 122 140 92 116 244 289 23 81 64 57 18 302 305 357 110 113 85 44 11 359 108 143 145 165 238
13 16 20 21 21 24 24 25 26 26 30 37 40 41 42 46 46 37 68 80 9 358 15 39 43 42 338 337 351 3 7 8 17 53 50 28 33 39 41 47 66 65 14 338 324 313 296 287 289 281 260 255 259 262 262 247 213 200 179 36 353 55 104 137 128 129 234 288 349 40 50 57 262 265 234 182 140 114 96 62 2 2 26 111 148 24 8
13 15 19 22 23 24 25 26 26 27 31 33 35 41 40 44 50 42 58 96 11 358 33 51 28 13 6 14 22 13 10 13 23 47 65 32 29 36 35 35 55 23 336 326 323 316 295 288 294 283 273 269 268 269 259 255 253 223 194 172 123 72 96 121 98 110 174 328 32 52 249 231 240 351 71 122 125 108 99 80 26 19 18 31 49 24 10
12 15 19 21 22 24 24 24 23 25 29 28 30 39 43 47 61 59 63 87 32 352 44 53 15 20 23 20 19 3 9 21 37 51 57 38 26 30 26 20 0 336 339 335 334 341 299 294 346 332 311 334 343 322 252 252 325 0 194 195 166 139 132 144 111 108 146 76 72 161 230 239 339 358 29 94 75 72 85 63 14 10 6 13 42 23 17
12 15 19 21 22 23 21 19 18 19 24 26 25 33 44 51 64 69 67 86 69 12 36 50 356 7 18 16 9 357 10 18 28 43 46 36 27 19 13 11 5 358 5 0 351 22 63 18 15 10 335 1 22 344 305 59 58 45 15 318 191 153 134 147 156 160 148 125 116 157 202 236 227 307 333 111 301 305 111 98 10 352 5 14 46 29 26
15 17 20 21 22 24 21 17 14 11 15 22 24 31 47 53 59 68 69 97 124 36 31 23 322 329 345 8 14 18 13 7 5 10 24 32 29 15 11 14 14 16 26 31 23 35 60 53 46 32 359 21 51 295 331 30 33 25 14 358 125 147 157 170 177 195 116 104 105 108 137 208 225 257 282 305 299 273 181 112 73 340 9 31 85 61 37
18 19 21 21 22 24 24 21 17 11 9 14 21 35 51 57 61 72 70 76 108 33 11 9 360 359 5 13 22 36 38 354 344 344 358 12 10 4 11 22 22 23 30 36 43 48 45 48 67 79 23 339 274 285 334 354 333 336 358 22 40 50 70 126 131 146 116 120 143 168 178 218 245 252 276 319 318 278 141 82 76 325 17 58 101 82 62
20 22 21 21 22 23 23 22 21 17 12 13 20 35 51 58 62 74 78 78 84 69 29 33 39 39 39 20 12 22 15 349 0 30 354 334 343 350 1 18 24 25 29 33 34 42 47 39 35 57 10 312 356 47 338 6 5 335 339 8 29 28 23 53 82 96 112 127 140 150 180 234 273 260 297 325 325 232 120 98 238 201 74 97 101 84 71
20 22 21 21 21 20 19 19 21 22 20 17 21 35 53 60 59 69 82 86 87 67 46 50 51 47 48 42 21 18 7 349 350 9 329 326 340 341 349 8 19 17 24 40 55 46 51 33 21 62 329 312 15 85 350 17 25 329 326 358 21 16 11 46 87 84 54 95 106 80 201 251 313 305 319 333 333 133 133 207 208 138 114 104 90 82 73
18 20 20 20 20 20 19 18 20 24 24 22 22 33 55 67 71 77 83 85 87 76 58 58 61 61 61 57 48 45 44 33 29 39 29 354 347 336 340 23 26 11 16 44 62 62 59 11 334 83 71 326 347 66 40 23 3 334 339 12 26 13 355 15 68 53 29 82 110 94 179 333 326 315 327 1 36 186 193 181 155 123 112 100 80 76 72
16 17 19 19 20 21 20 21 27 29 28 28 28 30 44 63 72 79 83 85 88 85 70 60 62 63 58 53 49 48 54 56 48 58 114 320 338 349 36 45 8 2 16 39 40 50 71 20 311 19 62 307 316 61 52 346 335 346 353 12 26 25 19 20 20 18 36 60 74 94 155 327 338 329 333 19 58 171 143 124 123 110 103 98 83 73 65
13 15 17 18 19 21 22 26 35 36 34 35 34 34 46 67 72 77 82 87 88 84 75 69 67 63 56 51 50 50 55 61 57 57 73 29 10 30 124 212 338 355 21 58 58 22 47 217 293 4 37 310 335 62 71 20 343 334 344 103 44 4 92 127 312 351 80 83 46 101 187 333 15 50 87 46 64 112 117 106 102 95 88 85 76 63 45
11 13 15 17 18 21 24 30 39 40 38 37 38 43 56 74 84 80 77 77 78 79 92 108 90 70 61 55 52 52 56 59 54 51 58 57 54 68 97 85 43 39 25 41 73 49 13 51 61 52 46 350 4 38 82 92 40 322 339 76 46 355 128 129 103 61 91 108 126 131 142 63 61 75 84 76 75 83 87 87 88 84 70 45 25 9 347
7 10 12 14 17 20 24 29 36 38 37 37 38 43 49 60 83 89 82 84 86 88 99 122 120 75 52 49 50 53 55 55 50 44 48 58 68 72 71 60 56 57 47 51 73 140 111 116 143 96 74 38 64 53 38 68 113 307 340 48 17 20 107 111 102 89 69 65 84 111 117 95 80 77 73 68 66 60 55 62 67 58 35 4 348 328 311
0 4 7 9 12 17 22 26 31 34 33 36 38 39 44 56 74 90 103 102 91 88 89 87 81 56 22 24 43 52 50 48 46 44 43 48 60 70 64 54 52 59 59 50 44 77 104 98 8 87 91 171 99 89 60 39 48 40 39 3 322 347 48 85 94 99 90 78 93 122 117 97 82 79 75 67 57 43 37 38 33 16 348 329 320 310 303
353 359 2 4 5 10 14 19 25 29 30 35 36 36 44 57 63 69 89 88 74 81 86 53 52 59 50 6 12 27 44 46 45 47 46 46 53 64 70 66 57 52 53 42 33 55 77 60 40 80 106 323 21 94 119 111 196 115 75 54 271 329 23 67 98 87 105 197 228 168 136 111 78 67 68 65 54 35 21 17 357 327 311 305 304 302 302
347 354 357 358 0 4 6 9 18 25 27 31 33 33 39 49 52 53 59 60 60 68 63 1 54 69 91 61 24 6 22 58 43 46 57 52 47 48 56 64 58 46 40 33 33 54 71 71 77 97 106 31 41 124 157 161 163 97 76 251 250 318 2 73 106 71 39 338 324 339 203 169 58 43 30 20 8 345 336 333 315 304 299 296 295 295 297
341 351 355 354 357 3 6 2 5 20 30 33 36 35 36 42 49 51 49 45 48 48 6 317 332 15 54 76 42 14 266 152 34 28 51 62 46 24 16 30 37 31 25 18 22 52 66 54 69 126 209 264 68 79 119 145 104 89 61 300 341 49 49 92 83 79 62 247 233 192 207 246 303 355 346 325 313 312 312 310 308 308 305 296 292 291 292
335 346 352 353 356 5 12 6 3 20 41 42 48 46 41 41 42 41 39 38 41 42 337 315 321 342 37 87 41 19 26 182 12 0 354 32 39 11 343 334 339 339 340 345 354 41 63 37 32 236 255 131 91 15 12 59 66 61 307 303 17 109 167 165 132 150 205 221 211 193 203 247 271 299 305 295 299 308 309 310 313 314 309 300 295 294 295
329 339 346 348 353 4 19 24 31 52 55 42 51 50 42 38 35 31 28 28 29 25 2 343 346 2 5 12 35 38 48 153 268 319 305 291 335 348 332 327 333 323 290 279 287 289 298 291 274 291 324 93 138 317 3 63 75 251 255 238 117 128 149 158 157 165 189 195 189 192 216 246 264 275 280 287 297 301 303 307 312 313 313 308 300 296 296
319 328 335 340 345 357 18 43 64 73 60 44 38 31 30 30 26 20 16 13 15 15 10 8 6 340 340 354 16 18 26 57 334 322 308 292 301 322 314 313 326 322 275 241 240 276 299 288 281 290 267 187 150 106 104 127 183 250 241 178 150 150 157 166 171 183 210 204 201 220 245 259 276 284 287 289 290 294 304 311 312 312 311 306 295 288 287
316 313 317 322 325 335 0 38 71 76 63 50 46 45 39 17 9 8 8 6 8 14 9 349 324 326 347 21 18 349 332 320 324 331 326 306 295 300 297 298 305 295 255 228 219 235 257 256 254 267 226 183 153 116 129 139 145 265 215 187 176 173 177 184 189 206 224 223 235 258 264 270 285 294 295 293 292 298 307 310 308 307 305 297 289 286 286
317 309 307 305 298 296 316 344 23 57 52 46 46 43 22 356 352 356 2 2 4 14 15 354 335 339 346 355 351 337 323 309 311 323 332 322 299 300 302 294 290 276 250 225 207 230 248 235 223 232 218 196 174 93 108 121 153 205 197 189 184 184 189 193 199 214 230 242 259 272 276 282 291 296 297 296 298 303 306 304 304 305 301 293 289 289 289
322 318 314 304 284 267 271 290 295 301 347 23 36 14 345 340 339 342 350 354 350 1 16 22 21 292 313 335 346 342 343 345 334 335 349 354 325 313 312 292 279 266 242 223 214 232 248 231 205 205 215 205 167 97 111 193 207 198 192 189 186 184 186 193 210 229 247 264 274 279 285 292 296 295 291 290 296 301 301 299 300 300 297 296 296 294 293
324 325 322 310 285 260 256 271 282 281 287 311 322 317 326 332 333 333 340 347 343 342 356 17 26 287 316 337 4 18 358 358 354 350 1 4 332 314 306 282 272 258 228 222 229 236 240 225 195 180 203 199 139 98 259 251 216 193 188 186 182 182 190 215 240 251 262 272 279 284 288 290 290 286 282 287 296 301 299 300 305 306 306 306 301 297 297
322 324 322 311 287 265 261 272 283 276 261 265 296 317 329 334 333 330 328 326 330 330 267 248 245 19 341 345 346 340 349 354 349 336 335 333 321 308 289 271 280 246 218 222 225 222 229 209 190 187 205 157 135 198 238 227 202 191 187 183 181 187 206 232 248 259 266 273 282 288 288 284 282 283 290 302 307 299 295 311 322 321 318 315 308 303 305
320 319 314 304 287 274 272 277 281 270 249 267 315 329 332 329 327 324 309 283 271 242 211 198 138 171 161 198 286 296 331 354 344 330 324 321 317 309 290 276 292 253 223 218 222 244 224 194 183 195 324 166 203 231 230 211 197 190 186 187 194 208 233 258 273 279 277 280 291 292 287 286 286 291 310 326 319 296 303 329 326 319 318 319 317 318 323
319 315 312 302 287 278 277 275 269 258 259 308 324 327 325 320 317 308 282 262 250 236 220 211 244 217 197 205 258 278 312 330 321 323 330 325 314 309 301 264 272 294 311 315 310 262 204 185 173 186 229 221 236 246 238 219 204 194 189 196 212 237 274 291 297 296 286 288 295 292 288 294 294 293 309 317 309 307 330 322 309 303 312 322 330 346 354
327 323 322 317 297 274 263 260 262 269 287 309 319 321 317 317 324 303 269 237 231 233 224 224 246 231 205 195 239 256 271 322 343 343 330 326 321 320 337 348 300 323 332 298 286 278 179 149 92 190 241 261 260 238 223 211 201 195 194 206 234 282 300 298 297 293 287 290 294 294 296 297 287 277 282 288 290 305 307 292 286 297 330 343 3 11 3
336 331 333 341 336 307 274 280 289 295 299 303 306 303 296 322 341 315 255 209 230 226 214 227 246 230 205 208 246 253 255 299 7 22 290 325 338 322 347 356 336 22 18 311 282 274 353 334 357 30 292 294 256 204 197 193 189 192 205 227 271 300 300 296 296 294 291 292 295 297 299 293 279 272 276 274 260 253 266 269 276 349 18 23 25 14 5
1 360 1 359 352 336 305 297 305 318 333 344 350 18 14 6 307 223 179 210 272 224 207 230 259 250 230 235 250 243 236 251 276 267 257 269 247 248 30 26 250 51 23 284 260 156 130 309 336 20 278 265 228 204 198 194 192 200 213 242 287 301 299 295 296 297 295 294 294 293 294 293 284 269 250 231 232 248 256 250 208 125 62 44 26 7 359
12 12 4 353 350 349 336 321 331 25 54 69 57 26 26 314 279 290 49 68 294 254 222 225 258 266 241 234 233 229 230 240 247 250 265 267 241 195 101 274 261 75 74 259 260 108 103 43 324 275 249 247 229 213 204 198 197 206 226 265 290 296 295 295 299 300 299 298 296 293 291 288 269 217 190 188 209 240 241 205 166 145 78 28 2 350 347
359 357 353 351 356 6 14 34 73 73 55 57 44 11 342 290 314 319 240 211 278 291 254 228 252 282 252 225 226 240 237 228 230 234 250 251 225 198 187 336 36 79 232 249 281 62 61 356 276 259 270 270 236 214 206 200 200 209 239 275 285 288 293 300 302 301 300 299 296 287 253 174 156 161 168 175 194 217 209 184 170 160 30 350 338 338 340
349 348 349 351 1 15 23 42 61 51 46 67 47 8 345 344 344 336 294 299 309 318 300 248 245 254 226 203 221 245 229 217 237 246 226 224 231 179 68 33 47 207 246 267 61 66 250 220 217 251 284 287 232 212 204 199 202 218 250 273 279 285 294 295 294 298 302 299 264 164 150 147 145 146 153 164 181 196 194 189 191 247 334 336 330 329 331
350 347 343 339 353 18 23 22 25 30 46 73 71 86 44 344 327 284 306 322 321 314 302 279 246 220 213 215 225 234 215 219 254 264 239 233 251 76 77 245 236 235 302 2 43 210 240 229 233 258 280 267 224 210 200 195 205 230 254 267 273 280 281 277 283 298 301 275 182 162 159 161 159 156 161 173 184 193 203 206 215 324 326 327 326 325 326
2 358 356 349 356 12 9 320 345 26 150 209 166 153 166 239 250 233 284 315 317 313 304 284 247 217 215 213 214 228 220 209 235 252 226 178 40 74 215 228 231 40 20 1 328 295 285 266 259 268 277 262 228 209 198 197 213 239 262 269 269 270 268 266 274 291 293 203 170 169 172 174 175 179 190 199 203 208 211 208 249 304 303 309 320 323 321
9 6 10 9 340 354 32 87 23 9 192 191 167 158 175 242 251 272 315 325 324 321 311 283 246 241 244 219 214 236 221 192 190 238 195 101 61 246 219 174 79 38 33 4 297 269 248 248 262 280 296 288 246 213 201 203 221 243 260 268 267 265 266 265 265 266 257 190 162 168 174 176 184 200 208 210 214 222 222 227 275 300 303 312 323 323 318
7 5 14 18 287 313 350 191 221 241 238 222 238 296 319 314 300 310 325 326 321 319 314 289 266 278 273 244 239 253 229 191 175 234 169 116 245 269 258 83 37 219 166 213 255 247 236 258 283 299 314 310 260 216 204 206 224 242 254 264 266 266 268 265 259 254 249 237 204 187 187 185 180 186 200 212 223 235 254 276 292 303 314 325 327 324 319
356 354 357 314 233 240 236 241 262 268 268 276 291 306 314 314 314 325 332 326 311 305 300 284 271 279 272 247 250 269 239 177 175 220 198 150 138 315 8 3 282 236 178 192 219 221 241 286 305 314 323 317 260 219 210 213 227 238 246 255 261 264 265 263 256 248 242 238 226 203 195 191 182 183 202 231 250 264 287 300 301 310 324 331 331 331 335
327 303 250 239 253 257 259 276 307 297 282 283 293 304 306 307 313 324 337 346 342 326 306 280 259 267 262 248 284 323 247 204 176 200 199 142 156 202 156 194 243 257 243 216 218 243 286 309 317 319 313 302 264 228 218 220 228 235 239 245 252 256 257 255 249 238 229 228 223 207 198 200 200 203 219 241 255 274 308 312 314 328 334 335 347 11 18
272 245 227 222 241 269 271 274 292 291 283 287 296 300 301 308 314 321 332 342 340 333 320 287 253 247 242 219 57 336 254 228 194 165 187 204 198 189 183 215 231 236 225 216 256 314 332 337 334 320 306 299 277 244 228 223 224 231 237 237 240 247 252 251 242 228 218 213 210 208 212 221 226 229 238 251 255 253 265 300 329 346 341 335 27 43 37
233 234 232 225 226 239 254 258 265 274 279 287 296 300 302 305 309 315 321 323 324 326 321 287 255 238 125 184 216 246 266 243 191 166 207 217 188 155 168 221 229 221 219 268 318 337 349 349 337 318 309 311 299 267 242 231 228 232 236 237 238 243 249 248 240 230 220 211 210 217 227 232 234 239 248 255 252 246 246 266 318 349 325 269 22 39 36
215 234 246 240 236 240 248 254 262 271 276 281 289 297 299 299 302 309 315 314 308 299 285 276 267 218 156 201 206 173 342 294 229 197 232 242 211 178 199 233 245 240 245 282 312 321 324 325 319 307 298 298 299 284 255 240 234 232 233 237 241 243 246 246 241 234 228 222 219 224 231 233 233 240 248 249 245 243 245 258 283 303 290 271 308 2 13